TimeCDT,TemperatureF,Dew PointF,Humidity,Sea Level PressureIn,VisibilityMPH,Wind Direction,Wind SpeedMPH,Gust SpeedMPH,PrecipitationIn,Events,Conditions,WindDirDegrees,DateUTC
12:55 AM,34.0,30.0,85,29.71,5.0,North,18.4,27.6,0.00,Rain,Light Rain,10,2013-03-10 06:55:00
1:40 AM,33.8,30.2,87,29.70,2.5,North,18.4,25.3,0.00,Snow,Light Snow,360,2013-03-10 07:40:00
1:55 AM,33.1,30.0,89,29.73,3.0,North,18.4,24.2,0.01,Rain,Light Rain,360,2013-03-10 07:55:00
3:14 AM,33.8,30.2,87,29.72,5.0,North,18.4,28.8,0.00,Rain,Light Rain,10,2013-03-10 08:14:00
3:55 AM,33.1,28.9,85,29.73,5.0,North,17.3,26.5,0.00,,Overcast,350,2013-03-10 08:55:00
4:55 AM,32.0,28.9,88,29.74,2.5,North,16.1,21.9,0.00,,Overcast,360,2013-03-10 09:55:00
5:23 AM,32.0,28.4,87,29.75,3.0,North,23.0,28.8,0.00,,Overcast,350,2013-03-10 10:23:00
5:55 AM,32.0,28.0,85,29.77,5.0,North,18.4,32.2,0.00,,Overcast,360,2013-03-10 10:55:00
6:55 AM,32.0,28.4,87,29.78,3.0,North,20.7,28.8,N/A,,Overcast,350,2013-03-10 11:55:00
7:03 AM,32.0,28.4,87,29.79,3.0,North,24.2,32.2,N/A,Rain,Light Freezing Rain,360,2013-03-10 12:03:00
7:29 AM,32.0,28.4,87,29.80,3.0,North,19.6,32.2,0.00,,Overcast,350,2013-03-10 12:29:00
7:41 AM,30.2,28.4,93,29.82,2.5,NNW,24.2,31.1,0.00,Snow,Light Snow,340,2013-03-10 12:41:00
7:55 AM,30.0,26.1,85,29.83,3.0,North,29.9,38.0,0.00,,Overcast,350,2013-03-10 12:55:00
8:09 AM,28.4,24.8,86,29.83,2.0,North,24.2,39.1,0.00,Snow,Light Snow,350,2013-03-10 13:09:00
8:15 AM,28.4,24.8,86,29.84,1.5,North,21.9,39.1,0.00,Snow,Light Snow,350,2013-03-10 13:15:00
8:18 AM,28.4,24.8,86,29.84,1.0,NNW,23.0,36.8,0.00,Snow,Light Snow,340,2013-03-10 13:18:00
8:25 AM,28.4,24.8,86,29.84,0.5,North,23.0,34.5,0.00,Fog-Snow,Light Snow,350,2013-03-10 13:25:00
8:35 AM,28.4,24.8,86,29.84,0.5,North,23.0,40.3,0.00,Fog-Snow,Light Snow,350,2013-03-10 13:35:00
8:51 AM,26.6,24.8,93,29.84,0.2,North,20.7,34.5,0.00,Fog-Snow,Light Snow,350,2013-03-10 13:51:00
8:55 AM,27.0,24.1,89,29.87,0.2,NNW,28.8,40.3,0.00,Fog-Snow,Light Snow,340,2013-03-10 13:55:00
9:06 AM,26.6,23.0,86,29.85,0.2,North,20.7,32.2,0.00,Fog-Snow,Light Snow,350,2013-03-10 14:06:00
9:13 AM,26.6,23.0,86,29.85,0.2,NNW,19.6,31.1,0.01,Fog-Snow,Light Snow,340,2013-03-10 14:13:00
9:37 AM,26.6,21.2,80,29.88,1.0,North,23.0,35.7,0.01,Snow,Light Snow,350,2013-03-10 14:37:00
9:49 AM,26.6,21.2,80,29.88,0.8,North,15.0,29.9,0.01,Snow,Light Snow,350,2013-03-10 14:49:00
9:55 AM,26.1,23.0,88,29.91,0.5,NNW,23.0,32.2,0.01,Fog-Snow,Light Snow,340,2013-03-10 14:55:00
10:03 AM,24.8,21.2,86,29.88,0.5,North,25.3,36.8,0.00,Fog-Snow,Light Snow,350,2013-03-10 15:03:00
10:22 AM,24.8,21.2,86,29.89,0.2,NNW,29.9,38.0,0.00,Fog-Snow,Snow,340,2013-03-10 15:22:00
10:47 AM,24.8,21.2,86,29.89,0.2,NNW,25.3,39.1,0.01,Fog-Snow,Snow,340,2013-03-10 15:47:00
10:55 AM,23.0,21.0,92,29.94,0.2,NNW,21.9,39.1,0.01,Fog-Snow,Heavy Snow,330,2013-03-10 15:55:00
11:08 AM,23.0,19.4,86,29.90,0.2,NNW,18.4,31.1,0.02,Fog-Snow,Snow,340,2013-03-10 16:08:00
11:55 AM,23.0,19.9,88,29.96,0.2,NNW,18.4,28.8,0.05,Fog-Snow,Snow,340,2013-03-10 16:55:00
12:03 PM,23.0,19.4,86,29.92,0.2,NNW,20.7,29.9,0.01,Fog-Snow,Snow,340,2013-03-10 17:03:00
12:14 PM,24.8,19.4,80,29.92,0.5,NNW,19.6,31.1,0.01,Fog-Snow,Snow,330,2013-03-10 17:14:00
12:18 PM,24.8,19.4,80,29.92,0.5,NNW,24.2,33.4,0.01,Fog-Snow,Light Snow,330,2013-03-10 17:18:00
12:55 PM,24.1,19.9,84,29.96,0.5,NNW,26.5,36.8,0.01,Fog-Snow,Snow,340,2013-03-10 17:55:00
1:47 PM,24.8,19.4,80,29.93,0.2,NNW,26.5,38.0,0.01,Fog-Snow,Snow,330,2013-03-10 18:47:00
1:55 PM,24.1,19.9,84,29.97,0.2,NNW,21.9,32.2,0.01,Fog-Snow,Snow,340,2013-03-10 18:55:00
2:31 PM,24.8,19.4,80,29.93,0.2,NNW,25.3,35.7,0.00,Fog-Snow,Snow,340,2013-03-10 19:31:00
2:55 PM,24.1,19.0,81,29.97,0.5,NNW,28.8,38.0,0.00,Snow,Snow,340,2013-03-10 19:55:00
3:09 PM,24.8,19.4,80,29.93,1.5,NNW,25.3,35.7,0.00,Snow,Light Snow,330,2013-03-10 20:09:00
3:16 PM,24.8,19.4,80,29.93,1.2,NNW,25.3,36.8,0.00,Snow,Light Snow,330,2013-03-10 20:16:00
3:20 PM,24.8,19.4,80,29.93,1.8,NNW,20.7,33.4,0.00,,Overcast,330,2013-03-10 20:20:00
3:24 PM,24.8,19.4,80,29.94,2.5,NNW,21.9,33.4,0.01,,Overcast,330,2013-03-10 20:24:00
3:28 PM,24.8,19.4,80,29.94,1.8,NNW,21.9,33.4,0.01,Snow,Light Snow,340,2013-03-10 20:28:00
3:31 PM,24.8,19.4,80,29.94,1.2,NNW,24.2,34.5,0.01,Snow,Light Snow,330,2013-03-10 20:31:00
3:40 PM,24.8,19.4,80,29.94,0.5,NNW,27.6,35.7,0.01,Snow,Snow,330,2013-03-10 20:40:00
3:55 PM,24.1,19.0,81,29.98,1.0,NNW,17.3,36.8,0.01,Snow,Light Snow,340,2013-03-10 20:55:00
4:08 PM,24.8,19.4,80,29.93,0.8,NNW,21.9,32.2,0.00,Snow,Light Snow,340,2013-03-10 21:08:00
4:50 PM,24.8,19.4,80,29.94,1.0,North,23.0,33.4,0.00,Snow,Light Snow,350,2013-03-10 21:50:00
4:55 PM,25.0,19.0,78,29.99,1.8,NNW,21.9,33.4,0.00,Snow,Light Snow,340,2013-03-10 21:55:00
5:00 PM,24.8,19.4,80,29.95,3.0,NNW,23.0,33.4,0.00,,Overcast,340,2013-03-10 22:00:00
5:14 PM,24.8,19.4,80,29.95,3.0,North,17.3,31.1,0.00,,Overcast,350,2013-03-10 22:14:00
5:22 PM,24.8,19.4,80,29.95,2.0,NNW,21.9,33.4,0.00,Snow,Light Snow,340,2013-03-10 22:22:00
5:26 PM,24.8,19.4,80,29.95,1.5,NNW,23.0,33.4,0.00,Snow,Light Snow,340,2013-03-10 22:26:00
5:36 PM,24.8,19.4,80,29.96,1.5,NNW,17.3,-,0.00,Snow,Light Snow,340,2013-03-10 22:36:00
5:43 PM,24.8,19.4,80,29.96,1.2,NNW,23.0,31.1,0.00,Snow,Light Snow,340,2013-03-10 22:43:00
5:52 PM,24.8,19.4,80,29.96,1.5,NNW,23.0,31.1,0.00,Snow,Light Snow,340,2013-03-10 22:52:00
5:55 PM,25.0,19.9,81,30.00,1.5,NNW,17.3,29.9,0.00,Snow,Light Snow,340,2013-03-10 22:55:00
6:09 PM,24.8,19.4,80,29.96,1.8,NNW,16.1,28.8,0.00,Snow,Light Snow,340,2013-03-10 23:09:00
6:13 PM,24.8,19.4,80,29.96,2.0,NNW,18.4,25.3,0.00,Snow,Light Snow,340,2013-03-10 23:13:00
6:27 PM,24.8,19.4,80,29.96,2.5,NNW,16.1,21.9,0.01,,Overcast,340,2013-03-10 23:27:00
6:36 PM,24.8,19.4,80,29.97,4.0,North,17.3,23.0,0.01,,Overcast,350,2013-03-10 23:36:00
6:55 PM,24.1,19.0,81,30.01,5.0,NNW,15.0,23.0,0.01,,Haze,340,2013-03-10 23:55:00
7:55 PM,24.1,19.0,81,30.03,5.0,NNW,16.1,23.0,N/A,,Haze,330,2013-03-11 00:55:00
8:50 PM,24.8,19.4,80,29.99,7.0,NNW,13.8,19.6,0.00,,Overcast,330,2013-03-11 01:50:00
8:55 PM,24.1,19.0,81,30.04,7.0,NNW,13.8,-,0.00,,Overcast,330,2013-03-11 01:55:00
9:02 PM,24.8,19.4,80,30.00,7.0,NNW,12.7,-,N/A,,Overcast,330,2013-03-11 02:02:00
9:30 PM,24.8,19.4,80,30.01,4.0,NNW,12.7,-,N/A,,Overcast,330,2013-03-11 02:30:00
9:55 PM,24.1,19.9,84,30.06,7.0,NNW,11.5,20.7,N/A,,Overcast,340,2013-03-11 02:55:00
10:55 PM,24.1,18.0,77,30.06,9.0,NNW,10.4,-,N/A,,Scattered Clouds,340,2013-03-11 03:55:00
11:55 PM,24.8,17.6,74,30.01,9.0,NNW,12.7,-,N/A,,Overcast,330,2013-03-11 04:55:00
12:55 AM,23.0,16.0,74,30.05,9.0,NNW,10.4,-,N/A,,Partly Cloudy,340,2013-03-11 05:55:00